Heber, UT

6:20 AM MDT on May 25, 2017 (GMT -0600)
Heber

Weather History for K36U - September, 2012

Change the Weather History Date:

Wednesday, September 19, 2012

  Actual Average (KPVU) Record (KPVU)
Temperature  
Mean Temperature 56 °F -  
Max Temperature 80 °F 72 °F 90 °F (2016)
Min Temperature 32 °F 45 °F 34 °F (1988)
Degree Days  
Heating Degree Days 9    
Growing Degree Days 6 (Base 50)    
Moisture  
Dew Point 28 °F    
Average Humidity 47    
Maximum Humidity 93    
Minimum Humidity 11    
Precipitation  
Precipitation 0.00 in - - ()
Sea Level Pressure  
Sea Level Pressure 30.28 in    
Wind  
Wind Speed 3 mph (SSE)    
Max Wind Speed 17 mph    
Max Gust Speed 18 mph    
Visibility 10 miles    
Events      
Averages and records for this station are not official NWS values.
T = Trace of Precipitation, MM = Missing Value Source: NWS Daily Summary

Daily Weather History Graph

Daily Weather History Graph

Search for Another Location

Airport or City:

Trip Planner

Search our weather history database for the weather conditions in past years. The results will help you decide how hot, cold, wet, or windy it might be!

Date:

Astronomy

Sep. 19, 2012 Rise Set
Actual Time 7:10 AM MDT 7:26 PM MDT
Civil Twilight 6:43 AM MDT 7:54 PM MDT
Nautical Twilight 6:11 AM MDT 8:26 PM MDT
Astronomical Twilight 5:38 AM MDT 8:58 PM MDT
Moon 11:26 AM MDT (9/19) 9:38 PM MDT (9/19)
Length of Visible Light 13h 10m
Length of Day
12h 16m
Waxing Crescent, 17% of the Moon is Illuminated
Sep 19
Waxing Crescent
Sep 22
First Quarter
Sep 29
Full
Oct 8
Last Quarter
Oct 15
New

Hourly Weather History & Observations

Time (MDT) Temp. Windchill Dew Point Humidity Pressure Visibility Wind Dir Wind Speed Gust Speed Precip Events Conditions
12:15 AM 41.0 °F 38.0 °F 32.0 °F 70% 30.28 in 10.0 mi ESE 4.6 mph - N/A   Clear
12:35 AM 39.2 °F 37.0 °F 30.2 °F 70% 30.28 in 10.0 mi ESE 3.5 mph - N/A   Clear
1:15 AM 37.4 °F 32.8 °F 32.0 °F 81% 30.29 in 10.0 mi ESE 5.8 mph - N/A   Clear
1:35 AM 39.2 °F 35.9 °F 30.2 °F 70% 30.29 in 10.0 mi East 4.6 mph - N/A   Clear
1:55 AM 39.2 °F 35.9 °F 30.2 °F 70% 30.30 in 10.0 mi ESE 4.6 mph - N/A   Clear
2:15 AM 42.8 °F - 28.4 °F 57% 30.30 in 10.0 mi Calm Calm - N/A   Clear
2:35 AM 41.0 °F - 28.4 °F 61% 30.30 in 10.0 mi Calm Calm - N/A   Clear
3:15 AM 41.0 °F - 28.4 °F 61% 30.31 in 10.0 mi Calm Calm - N/A   Clear
3:35 AM 35.6 °F - 30.2 °F 81% 30.31 in 10.0 mi Calm Calm - N/A   Clear
3:55 AM 35.6 °F - 28.4 °F 75% 30.31 in 10.0 mi Calm Calm - N/A   Clear
4:15 AM 33.8 °F - 28.4 °F 81% 30.31 in 10.0 mi Calm Calm - N/A   Clear
4:35 AM 33.8 °F - 28.4 °F 81% 30.31 in 10.0 mi Calm Calm - N/A   Clear
4:55 AM 35.6 °F - 28.4 °F 75% 30.31 in 10.0 mi Calm Calm - N/A   Clear
5:15 AM 33.8 °F - 28.4 °F 81% 30.32 in 10.0 mi Calm Calm - N/A   Clear
5:35 AM 32.0 °F - 28.4 °F 87% 30.32 in 10.0 mi Calm Calm - N/A   Clear
5:55 AM 32.0 °F 28.7 °F 28.4 °F 87% 30.32 in 10.0 mi SE 3.5 mph - N/A   Clear
6:15 AM 32.0 °F - 28.4 °F 87% 30.32 in 10.0 mi Calm Calm - N/A   Clear
6:35 AM 33.8 °F - 28.4 °F 81% 30.33 in 10.0 mi Calm Calm - N/A   Clear
6:55 AM 32.0 °F - 28.4 °F 87% 30.34 in 10.0 mi Calm Calm - N/A   Clear
7:35 AM 32.0 °F 28.7 °F 30.2 °F 93% 30.34 in 10.0 mi ESE 3.5 mph - N/A   Clear
7:55 AM 33.8 °F - 30.2 °F 87% 30.34 in 7.0 mi Calm Calm - N/A   Clear
8:15 AM 37.4 °F - 32.0 °F 81% 30.34 in 1.8 mi Calm Calm - N/A   Haze
8:55 AM 42.8 °F - 32.0 °F 66% 30.34 in 10.0 mi Calm Calm - N/A   Clear
9:15 AM 42.8 °F - 32.0 °F 66% 30.34 in 10.0 mi Calm Calm - N/A   Clear
9:35 AM 46.4 °F - 32.0 °F 57% 30.34 in 10.0 mi Calm Calm - N/A   Clear
9:55 AM 50.0 °F - 30.2 °F 47% 30.34 in 10.0 mi Calm Calm - N/A   Clear
10:15 AM 51.8 °F - 28.4 °F 41% 30.34 in 10.0 mi Calm Calm - N/A   Clear
10:35 AM 53.6 °F - 28.4 °F 38% 30.34 in 10.0 mi Calm Calm - N/A   Clear
10:55 AM 55.4 °F - 26.6 °F 33% 30.33 in 10.0 mi Calm Calm - N/A   Clear
11:15 AM 59.0 °F - 26.6 °F 29% 30.33 in 10.0 mi Calm Calm - N/A   Clear
11:35 AM 60.8 °F - 26.6 °F 27% 30.32 in 10.0 mi Calm Calm - N/A   Clear
11:55 AM 62.6 °F - 28.4 °F 27% 30.31 in 10.0 mi Calm Calm - N/A   Clear
12:15 PM 64.4 °F - 28.4 °F 26% 30.31 in 10.0 mi Calm Calm - N/A   Clear
12:35 PM 68.0 °F - 30.2 °F 24% 30.30 in 10.0 mi Calm Calm - N/A   Clear
12:55 PM 69.8 °F - 30.2 °F 23% 30.29 in 10.0 mi NNW 4.6 mph - N/A   Clear
1:15 PM 71.6 °F - 28.4 °F 20% 30.28 in 10.0 mi Calm Calm - N/A   Clear
1:35 PM 73.4 °F - 28.4 °F 19% 30.27 in 10.0 mi NNW 4.6 mph - N/A   Clear
2:15 PM 78.8 °F - 26.6 °F 15% 30.25 in 10.0 mi Calm Calm - N/A   Clear
2:35 PM 80.6 °F - 24.8 °F 13% 30.24 in 10.0 mi NW 3.5 mph - N/A   Clear
2:55 PM 80.6 °F - 23.0 °F 12% 30.24 in 10.0 mi SE 3.5 mph - N/A   Clear
3:15 PM 80.6 °F - 23.0 °F 12% 30.23 in 10.0 mi Calm Calm - N/A   Clear
3:35 PM 80.6 °F - 21.2 °F 11% 30.23 in 10.0 mi Calm Calm - N/A   Clear
3:55 PM 80.6 °F - 23.0 °F 12% 30.22 in 10.0 mi SW 17.3 mph - N/A   Clear
4:15 PM 80.6 °F - 23.0 °F 12% 30.22 in 10.0 mi WSW 13.8 mph - N/A   Clear
4:35 PM 80.6 °F - 24.8 °F 13% 30.22 in 10.0 mi SW 13.8 mph 18.4 mph N/A   Clear
5:15 PM 78.8 °F - 24.8 °F 14% 30.21 in 10.0 mi SW 9.2 mph - N/A   Clear
5:35 PM 78.8 °F - 23.0 °F 13% 30.21 in 10.0 mi WSW 9.2 mph - N/A   Clear
5:55 PM 78.8 °F - 23.0 °F 13% 30.21 in 10.0 mi WSW 9.2 mph - N/A   Clear
6:15 PM 77.0 °F - 24.8 °F 14% 30.21 in 10.0 mi WSW 3.5 mph - N/A   Clear
6:55 PM 71.6 °F - 28.4 °F 20% 30.21 in 10.0 mi SW 9.2 mph - N/A   Clear
7:15 PM 68.0 °F - 26.6 °F 21% 30.21 in 10.0 mi SSW 5.8 mph - N/A   Clear
7:35 PM 66.2 °F - 28.4 °F 24% 30.21 in 10.0 mi Calm Calm - N/A   Clear
7:55 PM 62.6 °F - 30.2 °F 30% 30.23 in 7.0 mi ENE 6.9 mph - N/A   Clear
8:15 PM 60.8 °F - 28.4 °F 29% 30.23 in 10.0 mi ESE 8.1 mph - N/A   Clear
8:35 PM 57.2 °F - 28.4 °F 33% 30.24 in 10.0 mi ESE 8.1 mph - N/A   Clear
8:55 PM 55.4 °F - 26.6 °F 33% 30.24 in 10.0 mi East 10.4 mph - N/A   Clear
9:15 PM 55.4 °F - 28.4 °F 36% 30.24 in 10.0 mi East 6.9 mph - N/A   Clear
9:55 PM 53.6 °F - 28.4 °F 38% 30.25 in 10.0 mi East 3.5 mph - N/A   Clear
11:35 PM 44.6 °F 42.2 °F 32.0 °F 61% 30.27 in 10.0 mi SE 4.6 mph - N/A   Clear
11:55 PM 42.8 °F - 32.0 °F 66% 30.27 in 10.0 mi Calm Calm - N/A   Clear